Regional Weather Roundup
Issued by NWS Huntsville, AL

Home | Current Version | Previous Version | Text Only | Print | Product List | Glossary On
Versions: 1 2 3 4 5 6 7 8 9 10 11 12 13 14 15 16 17 18 19 20 21 22 23 24 25 26 27 28 29 30 31 32 33 34 35 36 37 38 39 40 41 42 43 44 45 46 47 48 49 50
000
ASUS44 KHUN 011710
RWRHUN

WEATHER ROUNDUP FOR THE TENNESSEE VALLEY
NATIONAL WEATHER SERVICE HUNTSVILLE AL
1200 PM CDT WED APR 01 2015

ALZ001>004-011800-
NORTHWEST ALABAMA

CITY           SKY/WX    TMP DP  RH WIND       PRES   REMARKS
BANKHEAD NF      N/A     73  54  51 SW3         N/A
SHOALS AIRPORT PTSUNNY   69  51  52 CALM      30.10
$$

ALZ005>007-016-011800-
NORTH CENTRAL ALABAMA

CITY           SKY/WX    TMP DP  RH WIND       PRES   REMARKS
DECATUR AP     MOSUNNY   69  53  56 SE5       30.09F
HUNTSVILLE AP  MOSUNNY   72  54  53 CALM      30.09S
HUN NWS/UAH      N/A     73  49  42 S3          N/A
MERIDIANVILLE  SUNNY     70  32  24 CALM      30.09S
REDSTONE ARSN  MOSUNNY   71  54  54 N3        30.08F
VINEMONT AP    FAIR      67  56  66 S6        30.12R
$$

ALZ008>010-011800-
NORTHEAST ALABAMA

CITY           SKY/WX    TMP DP  RH WIND       PRES   REMARKS
ALBERTVILLE    SUNNY     70  61  73 CALM      30.09S
FORT PAYNE     SUNNY     72  37  28 CALM      30.08S
SCOTTSBORO AP  SUNNY     72  39  30 CALM      30.09F
SCOTTSBORO HCN   N/A     70 N/A N/A MISG        N/A
VALLEY HEAD      N/A     70 N/A N/A MISG        N/A
$$

TNZ076-096-097-011800-
SOUTHEASTERN MIDDLE TENNESSEE

CITY           SKY/WX    TMP DP  RH WIND       PRES   REMARKS
TULLAHOMA      SUNNY     66  28  24 N7        30.11F
WINCHESTER     SUNNY     70  34  26 N6        30.09F
$$

...SURROUNDING SITES...

CITY           SKY/WX    TMP DP  RH WIND       PRES   REMARKS
ATLANTA        MOSUNNY   73  53  49 N5        30.07F
ANNISTON       SUNNY     68  58  70 VRB3      30.10F
BIRMINGHAM     PTSUNNY   68  59  73 VRB5      30.12F
CHATTANOOGA    MOSUNNY   71  35  26 VRB6      30.10F
CORINTH        FAIR      70  57  64 SE8       30.05F
DALTON         SUNNY     68  39  34 N10       30.10S
GADSDEN        SUNNY     68  57  68 CALM      30.09S
GOLDEN TRNGL   PTSUNNY   75  61  60 SW6       30.06F
HALEYVILLE       N/A     71  55  56 CALM      30.12S
JACKSON TN     SUNNY     72  44  36 E10G18    30.05F
MEMPHIS        PTSUNNY   73  60  63 SE7       30.02F
MURFREESBORO   FAIR      69  29  22 NE8       30.10F
NASHVILLE      PTSUNNY   71  32  23 E9        30.11F
OXFORD MS      FAIR      72  59  64 SE8       30.05F
ROME           SUNNY     73  41  31 NW7       30.08S
SAVANNAH       MOSUNNY   72  52  49 VRB5      30.07F
TUPELO         SUNNY     72  60  66 S6        30.06F
TUSCALOOSA     SUNNY     74  58  57 CALM      30.08F
$$

...GULF COAST WEATHER...

CITY           SKY/WX    TMP DP  RH WIND       PRES   REMARKS
GULFPORT       MOSUNNY   75  65  70 S9        30.11S
PASCAGOULA     PTSUNNY   79  63  57 S8        30.11F
MOBILE         PTSUNNY   78  59  51 W7        30.12S
GULF SHORES    MOSUNNY   75  66  72 SW7       30.12S
PENSACOLA      MOSUNNY   77  65  66 SW9       30.11S
DESTIN         SUNNY     74  65  73 VRB7      30.11S
PANAMA CITY    SUNNY     76  66  71 SW13      30.11F
APPALACHICOLA  PTSUNNY   83  62  49 W13G21    30.11F
$$




USA.gov is the U.S. government's official web portal to all federal, state and local government web resources and services.